CW7500 Weather Reports


Display with metric or nautical units.
time (UTC)temp
F
wind
direction
speed
MPH
gust
MPH
rain 1hr
in
rain 24hr
in
rain mn
in
humidity
%
barometer
mb
20260906062003 60 270 1.0 3.0 0.00 0.02 0.00 100 1011.6
20260906061504 60 318 1.0 2.0 0.00 0.02 0.00 100 1011.6
20260906061004 60 262 0.0 1.0 0.00 0.02 0.00 100 1011.6
20260906060503 60 264 0.0 1.0 0.00 0.02 0.00 100 1011.4
20260906060004 60 271 0.0 1.0 0.00 0.02 0.00 100 1011.5
20260906055503 60 283 0.0 1.0 0.00 0.02 0.00 100 1011.5
20260906055003 60 244 0.0 2.0 0.00 0.02 0.00 100 1011.5
20260906054504 60 316 0.0 1.0 0.00 0.02 0.00 100 1011.5
20260906054004 60 255 0.0 1.0 0.00 0.02 0.00 100 1011.5
20260906053504 60 292 0.0 1.0 0.00 0.02 0.00 100 1011.6
20260906052504 60 308 1.0 1.0 0.00 0.02 0.00 100 1011.6
20260906052004 60 275 0.0 1.0 0.00 0.02 0.00 100 1011.7
20260906051503 60 275 0.0 1.0 0.00 0.02 0.00 100 1011.7
20260906051004 60 262 1.0 2.0 0.00 0.02 0.00 100 1011.7
20260906050503 60 290 1.0 1.0 0.00 0.02 0.00 100 1011.9
20260906050024 60 260 0.0 2.0 0.00 0.02 0.00 100 1011.9
20260906045523 60 268 1.0 2.0 0.00 0.02 0.00 100 1011.8
20260906045024 60 247 0.0 2.0 0.00 0.02 0.00 100 1011.8
20260906044523 60 264 0.0 2.0 0.00 0.02 0.00 100 1011.8
20260906044023 60 247 1.0 3.0 0.00 0.02 0.00 100 1011.8
20260906043023 60 289 1.0 3.0 0.00 0.02 0.00 100 1011.7
20260906042524 60 245 0.0 3.0 0.00 0.02 0.00 100 1011.7
20260906042023 60 149 2.0 3.0 0.00 0.02 0.00 100 1011.7
20260906041523 60 281 1.0 2.0 0.00 0.02 0.00 100 1011.7
20260906041023 60 246 0.0 2.0 0.00 0.02 0.00 100 1011.6
20260906040523 60 321 0.0 2.0 0.00 0.02 0.00 100 1011.7
20260906040023 60 325 0.0 1.0 0.00 0.02 0.00 100 1011.7
20260906035524 61 259 0.0 0.0 0.00 0.02 0.02 100 1011.6
20260906035023 61 244 0.0 1.0 0.00 0.02 0.02 100 1011.5
20260906034524 61 249 0.0 1.0 0.00 0.02 0.02 100 1011.5
20260906034023 61 210 0.0 1.0 0.00 0.02 0.02 100 1011.4
20260906033523 61 230 0.0 0.0 0.00 0.02 0.02 100 1011.4
20260906033024 61 293 0.0 2.0 0.00 0.02 0.02 100 1011.4
20260906032523 61 251 0.0 1.0 0.00 0.02 0.02 100 1011.3
20260906032023 61 242 0.0 2.0 0.00 0.02 0.02 100 1011.4
20260906031524 61 253 0.0 2.0 0.00 0.02 0.02 100 1011.5
20260906030523 61 247 0.0 1.0 0.00 0.02 0.02 100 1011.4
20260906025023 61 227 0.0 1.0 0.00 0.02 0.02 100 1011.4
20260906024523 61 264 0.0 1.0 0.00 0.02 0.02 100 1011.4
20260906024023 61 248 0.0 1.0 0.00 0.02 0.02 100 1011.5
20260906023523 61 257 1.0 2.0 0.00 0.02 0.02 100 1011.5
20260906023023 61 227 0.0 0.0 0.00 0.02 0.02 100 1011.4
20260906022523 61 23 1.0 2.0 0.00 0.02 0.02 100 1011.4
20260906022024 61 53 0.0 1.0 0.00 0.02 0.02 100 1011.4
20260906021523 61 274 0.0 1.0 0.00 0.02 0.02 100 1011.4
20260906021023 61 278 0.0 0.0 0.00 0.02 0.02 100 1011.3
20260906020023 61 225 0.0 0.0 0.00 0.02 0.02 100 1011.2
20260906014523 61 215 0.0 0.0 0.00 0.02 0.02 100 1011.3
20260906014023 61 233 0.0 0.0 0.00 0.02 0.02 100 1011.4
20260906013523 60 227 0.0 0.0 0.00 0.02 0.02 100 1011.4
20260906012523 61 249 0.0 0.0 0.00 0.02 0.02 100 1011.5
20260906012023 61 217 0.0 0.0 0.00 0.02 0.02 100 1011.5
20260906011522 61 249 0.0 0.0 0.00 0.02 0.02 100 1011.4
20260906010023 61 231 1.0 1.0 0.02 0.02 0.02 100 1011.4
20260906005523 61 242 0.0 1.0 0.02 0.02 0.02 100 1011.3
20260906005023 61 231 0.0 0.0 0.02 0.02 0.02 100 1011.3
20260906004523 61 257 0.0 0.0 0.02 0.02 0.02 100 1011.4
20260906004023 61 238 0.0 0.0 0.02 0.02 0.02 100 1011.3
20260906003523 61 216 0.0 0.0 0.02 0.02 0.02 100 1011.3
20260906003023 61 217 0.0 0.0 0.02 0.02 0.02 100 1011.2
20260906002523 61 250 0.0 0.0 0.02 0.02 0.02 100 1011.2
20260906002023 61 239 0.0 0.0 0.02 0.02 0.02 100 1011.2
20260906001523 61 228 0.0 0.0 0.02 0.02 0.02 98 1011.2
20260906001023 61 251 1.0 1.0 0.02 0.02 0.02 98 1011.1
20260906000522 61 243 0.0 0.0 0.02 0.02 0.02 97 1011.1
20260906000023 61 232 0.0 0.0 0.00 0.00 0.00 96 1011.0
20260905235523 61 203 0.0 0.0 0.00 0.00 0.00 95 1010.9
20260905235023 61 208 0.0 0.0 0.00 0.00 0.00 95 1010.8
20260905234522 62 208 0.0 0.0 0.00 0.00 0.00 93 1010.8
20260905234023 62 215 0.0 0.0 0.00 0.00 0.00 91 1010.8
20260905233522 62 215 0.0 0.0 0.00 0.00 0.00 90 1010.8
20260905232523 63 239 0.0 1.0 0.00 0.00 0.00 86 1010.7
20260905232022 63 100 0.0 2.0 0.00 0.00 0.00 85 1010.7
20260905231522 63 41 1.0 1.0 0.00 0.00 0.00 85 1010.6
20260905231022 63 160 0.0 1.0 0.00 0.00 0.00 84 1010.5
20260905230522 63 108 0.0 3.0 0.00 0.00 0.00 84 1010.5
20260905230023 64 55 1.0 1.0 0.00 0.00 0.00 85 1010.4
20260905225522 64 233 0.0 1.0 0.00 0.00 0.00 84 1010.3
20260905225022 64 55 1.0 2.0 0.00 0.00 0.00 84 1010.3
20260905224522 64 36 1.0 3.0 0.00 0.00 0.00 85 1010.4
20260905224022 64 81 0.0 2.0 0.00 0.00 0.00 84 1010.4
20260905223522 64 111 2.0 5.0 0.00 0.00 0.00 84 1010.4
20260905223023 64 133 2.0 3.0 0.00 0.00 0.00 83 1010.4
20260905222522 64 18 2.0 5.0 0.00 0.00 0.00 82 1010.4
20260905221022 64 87 1.0 2.0 0.00 0.00 0.00 82 1010.4
20260905220523 65 185 1.0 6.0 0.00 0.00 0.00 81 1010.2
20260905220022 65 96 2.0 3.0 0.00 0.00 0.00 80 1010.2
20260905215022 65 138 2.0 6.0 0.00 0.00 0.00 80 1010.0
20260905214023 65 126 3.0 6.0 0.00 0.00 0.00 79 1009.8
20260905213522 66 43 3.0 7.0 0.00 0.00 0.00 78 1009.6
20260905213022 66 123 1.0 7.0 0.00 0.00 0.00 78 1009.6
20260905212523 66 101 1.0 7.0 0.00 0.00 0.00 77 1009.5
20260905212022 66 198 1.0 6.0 0.00 0.00 0.00 77 1009.5
20260905211022 67 54 1.0 7.0 0.00 0.00 0.00 75 1009.5
20260905210522 67 153 2.0 3.0 0.00 0.00 0.00 76 1009.5
20260905210023 67 38 2.0 6.0 0.00 0.00 0.00 76 1009.5
20260905205522 67 64 2.0 7.0 0.00 0.00 0.00 75 1009.3
20260905205022 68 16 2.0 7.0 0.00 0.00 0.00 75 1009.4
20260905204522 68 137 2.0 6.0 0.00 0.00 0.00 73 1009.2
20260905204023 68 92 1.0 6.0 0.00 0.00 0.00 75 1009.2
20260905203522 68 265 1.0 3.0 0.00 0.00 0.00 77 1009.2
20260905203022 68 192 2.0 6.0 0.00 0.00 0.00 75 1009.2
20260905202522 69 54 2.0 6.0 0.00 0.00 0.00 72 1009.1
20260905202022 68 175 1.0 2.0 0.00 0.00 0.00 75 1009.1
20260905201522 67 219 2.0 5.0 0.00 0.00 0.00 78 1009.1
20260905201022 67 65 2.0 6.0 0.00 0.00 0.00 79 1009.2
20260905200522 67 37 2.0 5.0 0.00 0.00 0.00 78 1009.2
20260905200022 67 117 1.0 3.0 0.00 0.00 0.00 78 1009.1
20260905195521 67 193 0.0 3.0 0.00 0.00 0.00 78 1009.0
20260905195022 66 65 1.0 2.0 0.00 0.00 0.00 78 1009.0
20260905194522 66 57 2.0 3.0 0.00 0.00 0.00 80 1009.0
20260905194022 66 155 1.0 6.0 0.00 0.00 0.00 82 1009.0
20260905193522 66 181 1.0 5.0 0.00 0.00 0.00 80 1009.0
20260905193022 66 173 1.0 7.0 0.00 0.00 0.00 81 1009.0
20260905192522 67 101 2.0 7.0 0.00 0.00 0.00 80 1009.1
20260905192022 67 333 2.0 7.0 0.00 0.00 0.00 81 1009.1
20260905191522 67 100 2.0 5.0 0.00 0.00 0.00 80 1009.0
20260905191021 67 80 2.0 8.0 0.00 0.00 0.00 78 1009.0
20260905190522 69 123 1.0 6.0 0.00 0.00 0.00 76 1009.0
20260905190022 70 111 2.0 7.0 0.00 0.00 0.00 75 1009.0
20260905185522 70 231 1.0 8.0 0.00 0.00 0.00 77 1008.8
20260905185022 70 35 1.0 6.0 0.00 0.00 0.00 77 1009.0
20260905184521 69 76 2.0 7.0 0.00 0.00 0.00 75 1009.0
20260905184022 70 46 2.0 7.0 0.00 0.00 0.00 73 1009.0
20260905183521 70 56 3.0 8.0 0.00 0.00 0.00 74 1009.0
20260905183022 71 98 5.0 10.0 0.00 0.00 0.00 72 1009.0
20260905182022 72 79 2.0 5.0 0.00 0.00 0.00 69 1008.9
20260905181522 71 235 4.0 9.0 0.00 0.00 0.00 73 1009.0
20260905181021 70 104 2.0 5.0 0.00 0.00 0.00 75 1009.0
20260905180522 71 109 2.0 6.0 0.00 0.00 0.00 71 1009.0
20260905180021 71 114 0.0 3.0 0.00 0.00 0.00 70 1009.0
20260905175522 70 47 1.0 3.0 0.00 0.00 0.00 74 1009.0
20260905175021 70 188 0.0 7.0 0.00 0.00 0.00 72 1008.8
20260905174522 70 11 1.0 3.0 0.00 0.00 0.00 71 1008.8
20260905173521 69 180 1.0 5.0 0.00 0.00 0.00 72 1008.9
20260905172521 68 354 2.0 7.0 0.00 0.00 0.00 73 1008.7
20260905172021 68 343 1.0 2.0 0.00 0.00 0.00 73 1008.7
20260905171522 68 63 0.0 3.0 0.00 0.00 0.00 76 1008.7
20260905171022 68 22 1.0 2.0 0.00 0.00 0.00 74 1008.7
20260905170521 68 20 0.0 2.0 0.00 0.00 0.00 72 1008.6
20260905170021 68 63 4.0 8.0 0.00 0.00 0.00 72 1008.6
20260905165522 69 16 2.0 5.0 0.00 0.00 0.00 71 1008.5
20260905165022 70 199 2.0 5.0 0.00 0.00 0.00 71 1008.5
20260905164521 70 126 2.0 5.0 0.00 0.00 0.00 69 1008.4
20260905164022 71 265 2.0 8.0 0.00 0.00 0.00 70 1008.4
20260905163521 70 175 3.0 6.0 0.00 0.00 0.00 69 1008.5
20260905163021 70 342 4.0 7.0 0.00 0.00 0.00 68 1008.5
20260905162521 70 59 3.0 6.0 0.00 0.00 0.00 68 1008.4
20260905161521 70 14 2.0 5.0 0.00 0.00 0.00 69 1008.4
20260905161022 70 113 1.0 6.0 0.00 0.00 0.00 71 1008.4
20260905160521 70 49 1.0 2.0 0.00 0.00 0.00 71 1008.4
20260905160022 70 92 1.0 3.0 0.00 0.00 0.00 72 1008.5
20260905155521 70 39 2.0 6.0 0.00 0.00 0.00 70 1008.5
20260905155021 71 21 2.0 7.0 0.00 0.00 0.00 68 1008.4
20260905154522 71 112 2.0 6.0 0.00 0.00 0.00 68 1008.4
20260905154021 70 298 2.0 5.0 0.00 0.00 0.00 72 1008.4
20260905153521 69 33 2.0 7.0 0.00 0.00 0.00 73 1008.4
20260905153022 69 49 3.0 6.0 0.00 0.00 0.00 72 1008.4
20260905152521 70 8 3.0 7.0 0.00 0.00 0.00 69 1008.4
20260905151521 71 24 2.0 5.0 0.00 0.00 0.00 71 1008.5
20260905151021 71 45 1.0 5.0 0.00 0.00 0.00 72 1008.4
20260905150522 70 61 2.0 7.0 0.00 0.00 0.00 71 1008.4
20260905145521 70 86 3.0 6.0 0.00 0.00 0.00 71 1008.4
20260905145021 71 108 3.0 7.0 0.00 0.00 0.00 70 1008.3
20260905144521 69 15 2.0 6.0 0.00 0.00 0.00 73 1008.4
20260905143521 69 11 2.0 8.0 0.00 0.00 0.00 73 1008.3
20260905143021 69 38 2.0 7.0 0.00 0.00 0.00 74 1008.3
20260905142521 69 18 3.0 8.0 0.00 0.00 0.00 74 1008.4
20260905142021 69 107 2.0 7.0 0.00 0.00 0.00 73 1008.4
20260905141521 69 6 2.0 9.0 0.00 0.00 0.00 73 1008.3
20260905141021 70 78 4.0 9.0 0.00 0.00 0.00 71 1008.3
20260905140521 72 88 3.0 8.0 0.00 0.00 0.00 66 1008.3
20260905135521 69 46 2.0 8.0 0.00 0.00 0.00 72 1008.4
20260905135021 68 15 3.0 8.0 0.00 0.00 0.00 74 1008.4
20260905134521 68 71 2.0 3.0 0.00 0.00 0.00 75 1008.5
20260905134020 68 39 2.0 7.0 0.00 0.00 0.00 76 1008.6
20260905133521 68 35 1.0 5.0 0.00 0.00 0.00 76 1008.6
20260905132520 69 141 2.0 6.0 0.00 0.00 0.00 72 1008.5
20260905131521 70 32 2.0 7.0 0.00 0.00 0.00 71 1008.3
20260905131021 69 280 1.0 6.0 0.00 0.00 0.00 72 1008.3
20260905130521 69 224 2.0 7.0 0.00 0.00 0.00 72 1008.2
20260905125020 67 295 1.0 3.0 0.00 0.00 0.00 78 1008.1
20260905124521 66 247 1.0 3.0 0.00 0.00 0.00 78 1008.1
20260905124021 66 140 1.0 7.0 0.00 0.00 0.00 79 1008.1
20260905123521 66 233 2.0 8.0 0.00 0.00 0.00 79 1007.9
20260905123020 66 215 1.0 5.0 0.00 0.00 0.00 79 1007.9
20260905122521 66 112 2.0 3.0 0.00 0.00 0.00 78 1007.9
20260905122021 66 247 2.0 5.0 0.00 0.00 0.00 79 1007.9
20260905121521 65 252 1.0 6.0 0.00 0.00 0.00 80 1007.9
20260905121021 65 173 1.0 3.0 0.00 0.00 0.00 80 1007.8
20260905120521 65 359 1.0 7.0 0.00 0.00 0.00 82 1007.7
20260905120021 64 194 1.0 5.0 0.00 0.00 0.00 82 1007.8
20260905115521 64 205 1.0 5.0 0.00 0.00 0.00 83 1007.8
20260905115021 64 253 0.0 3.0 0.00 0.00 0.00 84 1007.8
20260905114520 63 275 1.0 5.0 0.00 0.00 0.00 85 1007.8
20260905114020 63 254 0.0 1.0 0.00 0.00 0.00 86 1007.8
20260905113521 63 255 1.0 2.0 0.00 0.00 0.00 86 1007.5
20260905113021 62 231 1.0 2.0 0.00 0.00 0.00 86 1007.5
20260905112020 62 257 1.0 3.0 0.00 0.00 0.00 87 1007.4
20260905110520 61 223 1.0 2.0 0.00 0.00 0.00 89 1007.4
20260905105520 61 251 1.0 3.0 0.00 0.00 0.00 89 1007.3
20260905105021 61 253 1.0 2.0 0.00 0.00 0.00 89 1007.1
20260905104521 61 314 1.0 3.0 0.00 0.00 0.00 89 1007.0
20260905104021 61 276 1.0 3.0 0.00 0.00 0.00 89 1007.0
20260905103520 61 221 1.0 3.0 0.00 0.00 0.00 89 1007.1
20260905103021 61 295 1.0 3.0 0.00 0.00 0.00 88 1007.0
20260905102520 61 247 1.0 3.0 0.00 0.00 0.00 89 1007.1
20260905102020 61 329 1.0 3.0 0.00 0.00 0.00 88 1007.2
20260905101020 61 268 1.0 1.0 0.00 0.00 0.00 88 1007.1
20260905100521 61 259 1.0 1.0 0.00 0.00 0.00 88 1007.1
20260905100021 62 272 1.0 3.0 0.00 0.00 0.00 88 1007.1
20260905095020 62 282 1.0 3.0 0.00 0.00 0.00 88 1007.1
20260905093520 62 254 1.0 2.0 0.00 0.00 0.00 88 1007.0
20260905093020 62 271 1.0 2.0 0.00 0.00 0.00 88 1007.0
20260905092520 62 251 1.0 2.0 0.00 0.00 0.00 88 1006.9
20260905092020 62 282 0.0 1.0 0.00 0.00 0.00 87 1007.0
20260905091521 62 256 1.0 2.0 0.00 0.00 0.00 87 1007.0
20260905091020 62 254 1.0 1.0 0.00 0.00 0.00 87 1006.9
20260905090520 62 265 1.0 3.0 0.00 0.00 0.00 86 1006.9
20260905090020 62 278 0.0 3.0 0.00 0.00 0.00 86 1006.9
20260905085520 62 282 1.0 2.0 0.00 0.00 0.00 86 1006.9
20260905085020 62 297 1.0 2.0 0.00 0.00 0.00 87 1006.9
20260905084521 62 249 1.0 2.0 0.00 0.00 0.00 87 1006.9
20260905084021 62 272 1.0 2.0 0.00 0.00 0.00 86 1006.9
20260905083020 62 253 1.0 2.0 0.00 0.00 0.00 87 1006.8
20260905082020 62 250 0.0 3.0 0.00 0.00 0.00 86 1006.7
20260905081520 62 273 1.0 2.0 0.00 0.00 0.00 86 1006.7
20260905081020 62 226 1.0 3.0 0.00 0.00 0.00 86 1006.9
20260905080520 62 235 1.0 2.0 0.00 0.00 0.00 86 1006.7
20260905080020 62 231 1.0 2.0 0.00 0.00 0.00 86 1006.9
20260905075520 62 255 1.0 2.0 0.00 0.00 0.00 87 1006.9
20260905075020 62 273 1.0 5.0 0.00 0.00 0.00 87 1006.9
20260905074020 62 254 1.0 5.0 0.00 0.00 0.00 87 1006.9
20260905073520 62 268 0.0 2.0 0.00 0.00 0.00 86 1006.9
20260905073020 62 271 1.0 5.0 0.00 0.00 0.00 87 1006.9
20260905071020 63 307 1.0 2.0 0.00 0.00 0.00 86 1007.1
20260905070520 63 240 1.0 2.0 0.00 0.00 0.00 86 1007.1
20260905065520 63 257 1.0 1.0 0.00 0.00 0.00 86 1007.0
20260905065019 63 252 1.0 3.0 0.00 0.00 0.00 85 1007.2
20260905064520 63 303 1.0 3.0 0.00 0.00 0.00 85 1007.3
20260905063520 63 229 0.0 1.0 0.00 0.00 0.00 87 1007.4
20260905063020 63 242 0.0 3.0 0.00 0.00 0.00 86 1007.4